Location: Banska Bystrica
(0.0000°N, 19.1500°E)
Time: 18:07:32
(UTC+01:00)

Cosmos 2184 Rocket - Pass Details

Date: 19 February 2019
Orbit: 959 x 1002 km, 82.9° (Epoch: 19 March)

Event Time Altitude Azimuth Distance (km) Brightness Sun altitude
Rises 18:47:12 0° 11° (N) 3,694 6.8 -12.3°
Reaches altitude 10° 18:49:53 10° 18° (NNE) 2,743 6.1 -12.9°
Maximum altitude 18:55:44 41° 87° (E) 1,387 4.3 -14.3°
Drops below altitude 10° 19:01:33 10° 155° (SSE) 2,725 6.2 -15.8°
Sets 19:04:11 0° 162° (SSE) 3,668 7.0 -16.4°
